Location: Newark
(43.4100°N, 74.9600°W)
Time: 08:42:10
(UTC+00:00)

ISS - Pass Details

Date: 27 September 2019
Orbit: 411 x 421 km, 51.6° (Epoch: 18 October)

Event Time Altitude Azimuth Distance (km) Brightness Sun altitude
Rises 01:33:19 0° 299° (WNW) 2,345 1.3 -29.3°
Reaches altitude 10° 01:35:46 10° 317° (NW) 1,483 -0.1 -29.7°
Enters shadow 01:36:21 13° 324° (NW) 1,313 -0.5 -29.8°
